SL-3 DEB, 8110

Orbit data source: Space-Track

SL-3 DEB, 8110 is space debris in LEO originally from a launch on Fri, 11 Jul 1975 UTC launched from the Plesetsk Missile And Space Complex (PKMTR). Debris objects in space refer to the collection of defunct objects orbiting the Earth. Examples of debris include non-operational satellites, rocket bodies, and fragments generated from explosions, collisions, or faulty payload assembly.

Loading next visibility...
Identifier
8110, 1975-064D
Orbit
LEO
Country
Flag of CISCIS
Related business
Manufacturer
Unknown
Mission
Spacecraft
Bus & Motor
Unknown
Mass
Unknown
Launch date (UTC)
1975-07-11 (51 years ago)
Launch vehicle
Unknown
Launch site
Plesetsk Missile And Space Complex (PKMTR)
Object type
Payload
Rocket body
Debris
Shape & HBR
Unknown shape, 0.1 m
Radar Cross Section
Medium (>0.1 m² and <1 m²)

Expand to show TLE details & history
Last TLE update: 2 days ago

TLE from 2 days ago
0 SL-3 DEB
1  8110U 75064D   26171.30830234  .00000169  00000-0  85525-4 0  9997
2  8110  81.3476 119.6834 0033323   2.7498 357.3851 14.11489477621981
Epoch: 2026-06-20T07:23Z
TLE epoch observation values (Epoch: 2026-06-20T07:23:57.322Z)
Latitude
0.00003°
Longitude
100.16977°
Altitude
833.104 km
Speed
7.449 km/s
True Right ascension
07h 58m 44s
True Declination
0° 00' 00"
Sunlit
Object was in daylight at epoch
Visualization orbit readout
Latitude
Unknown
Longitude
Unknown
Altitude
Unknown
Speed
Unknown
Apparent Right ascension
Unknown
Apparent Declination
Unknown
Sunlit
N/A
Visualization observer readout
Local Sidereal Time
23:08:12
Azimuth
Unknown
Elevation
Unknown
Doppler factor
Unknown
Orbital elements
Apogee altitude
875.538 km
Perigee altitude
827.355 km
Semi-major axis
7,229.583 km
Eccentricity
0.00333
Inclination
81.3476°
RAAN
119.6834°
Arg. of periapsis
2.7498°
True anomaly
357.36761°
Mean anomaly
357.3851°
Eccentric anomaly
357.37636°
Mean motion
3.5308 °/min
Orbital period
101.96 mins
BSTAR
0.000085525
Loading maneuver chart data...
Computing Atmospheric mass density...
Loading historical data...
Loading historical data...
Loading historical data...
Loading historical data...
Loading historical data...
Loading historical data...
Loading historical data...
Other satellites on launch #64 in the year 1975 (1975-07-11 UTC)

Documentation

Showing up to 5 results
|